sat.trackr.live / text

‹ back to catalog

STARLINK-1280

NORAD 45388 · 2020-019AE

PAYLOAD ACTIVE UNKNOWN

§ Identity

Operator
Country
US
Launch date
2020-03-18
Launch site
AFETR
Launch vehicle
Mass (kg)
RCS (m²)

Purposes: comms

External: N2YO · Heavens-Above · Gunter

§ Orbital elements

Epoch: 2026-05-25T03:20:01.741056Z

Period
91.40 min
Inclination
53.0370°
Eccentricity
0.0005798
Mean motion
15.75496452 rev/d
Perigee alt
339.3 km
Apogee alt
347.1 km
Semi-major
6,721.4 km
B*
5.1348e-4
RAAN
104.1079°
Arg perigee
57.6943°
Mean anomaly
302.4637°
Rev number
34,235

§ Raw data

STARLINK-12801 45388U 20019AE  26145.13890904  .00079788  00000+0  51348-3 0  99942 45388  53.0370 104.1079 0005798  57.6943 302.4637 15.75496452342353

JSON: /api/v1/satellites/45388 · /tle

For live sub-satellite position, see the globe view (requires WebGL).

§ Visibility from observer

Set your observer location to see the next 7 days of passes ≥ 10°. The values pass through the URL so the page stays shareable.

No JS? Fill the form by hand. The geolocation button needs JavaScript.